Overview Statistics Trail Chart Weather Telemetry Raw packets
 

This is the latest recevied weather packets stored in our database for station/object NI0Z. If no packets are shown the sender has not sent any weather packets the latest 10 day(s).

<< 95 96 97 98 99 100 101 >>
Time Temp. Humidity Pressure Rain* Wind** Luminosity Snow
1787936639 27.22° C 56% - 0 mm - - -
1787936339 26.67° C 54% - 0 mm - - -
1787936034 27.22° C 54% - 0 mm - - -
1787935729 26.67° C 57% - 0 mm - - -
1787935426 26.67° C 56% - 0 mm - - -
1787935122 27.22° C 55% - 0 mm - - -
1787934817 27.22° C 54% - 0 mm - - -
1787934516 26.67° C 57% - 0 mm - - -
1787934211 26.11° C 57% - 0 mm - - -
1787933910 26.11° C 56% - 0 mm - - -
1787933609 26.11° C 57% - 0 mm - - -
1787933304 26.67° C 58% - 0 mm - - -
1787933004 26.11° C 58% - 0 mm - - -
1787932702 26.11° C 60% - 0 mm - - -
1787932397 25.56° C 61% - 0 mm - - -
1787932092 26.11° C 62% - 0 mm - - -
1787931791 26.11° C 60% - 0 mm - - -
1787931500 25.56° C 63% - 0 mm - - -
1787931186 25.56° C 63% - 0 mm - - -
1787930584 25° C 63% - 0 mm - - -
1787930280 25° C 65% - 0 mm - - -
1787929980 25° C 64% - 0 mm - - -
1787929678 24.44° C 65% - 0 mm - - -
1787929373 24.44° C 65% - 0 mm - - -
1787929071 23.89° C 66% - 0 mm - - -

* Rain latest hour (hover to see other rain measurements)
** Current wind speed in m/s (hover to see current wind gust speed)